Regional Weather Roundup
Issued by NWS Cleveland, OH

Home | Current Version | Previous Version | Graphics & Text | Print | Product List | Glossary On
Versions: 1 2 3 4 5 6 7 8 9 10 11 12 13 14 15 16 17 18 19 20 21 22 23 24 25 26 27 28 29 30 31 32 33 34 35 36 37 38 39 40 41 42 43 44 45 46 47 48 49 50
000
ASUS41 KCLE 050600
RWRCLE
OHIO REGIONAL WEATHER ROUNDUP
NATIONAL WEATHER SERVICE WILMINGTON, OH
200 AM EDT TUE MAY 05 2015

NOTE: "FAIR" INDICATES FEW OR NO CLOUDS BELOW 12,000 FEET WITH NO
SIGNIFICANT WEATHER AND/OR OBSTRUCTIONS TO VISIBILITY.

OHZ001>008-015>018-024>027-034-035-043-044-050700-
   NORTHWEST OHIO

CITY           SKY/WX    TMP DP  RH WIND       PRES   REMARKS
DEFIANCE       CLOUDY    61  58  90 CALM      30.20R FOG
FINDLAY        CLOUDY    61  58  90 S8        30.20R FOG
TOLEDO EXPRESS PTCLDY    60  59  96 SW5       30.18S FOG
TOLEDO EXEC    PTCLDY    59  56  89 SW5       30.18F FOG
LIMA           CLOUDY    60  58  92 S6        30.21S FOG
$$

OHZ009>014-019>023-028>033-038-089-050700-
   NORTHEAST OHIO

CITY           SKY/WX    TMP DP  RH WIND       PRES   REMARKS
CLE-HOPKINS    CLOUDY    60  57  89 CALM      30.22S
CLE-LAKEFRONT  MOCLDY    57  53  86 E3        30.20R
CUY CO. ARPT   NOT AVBL
LORAIN-ELYRIA  MOCLDY    55  55 100 CALM      30.20S FOG
ASHTABULA      FOG       55  55 100 CALM      30.21F VSB 3/4
AKRON-CANTON   MOCLDY    59  56  89 CALM      30.22S FOG
WOOSTER        NOT AVBL
MANSFIELD      PTCLDY    58  58 100 CALM      30.22S FOG
YOUNGSTOWN     MOCLDY    58  57  97 CALM      30.22S
$$

OHZ042-051>053-060>062-070>072-077>081-050700-
  SOUTHWEST OHIO

CITY           SKY/WX    TMP DP  RH WIND       PRES   REMARKS
CINC-COVINGTON PTCLDY    67  57  70 NW5       30.22R
CINC-LUNKEN    MOCLDY    62  61  96 CALM      30.22R FOG
HAMILTON       MOCLDY    63  59  87 CALM      30.23R
DAYTON         TSTM      63  63 100 CALM      30.23F FOG
WRIGHT-PAT AFB TSTM      63  63 100 NW7G17    30.24R
DAYTON GENERAL LGT RAIN  63  61  93 N7        30.22R FOG
WILMINGTON     CLOUDY    63  57  81 N7        30.22S
$$

OHZ036-037-039>041-045>050-054>059-063>069-073>076-082>088-050700-
  CENTRAL AND SOUTHEAST OHIO

CITY           SKY/WX    TMP DP  RH WIND       PRES   REMARKS
COLUMBUS       LGT RAIN  62  61  96 CALM      30.22S
OSU AIRPORT    LGT RAIN  62  61  96 SW7       30.23S VSB 1
BOLTON FIELD   NOT AVBL
RICKENBACK AFB NOT AVBL
NEWARK         LGT RAIN  61  60  97 CALM      30.22S FOG
MARION         CLOUDY    60  58  92 S6        30.22S FOG
LANCASTER      PTCLDY    62  58  86 S5        30.21F
ZANESVILLE     CLOUDY    61  59  93 CALM      30.22S FOG
NEW PHILLY     CLOUDY    63  61  93 SE3       30.22S FOG
$$



USA.gov is the U.S. government's official web portal to all federal, state and local government web resources and services.